Nadi, Fiji

2:30 AM FJST on December 05, 2016 (GMT +1300)
Nadi International

Weather History for NFFN - November, 2012

Change the Weather History Date:

Friday, November 9, 2012

  Actual Average Record
Temperature  
Mean Temperature 74 °F -  
Max Temperature 84 °F 84 °F 87 °F (1997)
Min Temperature 65 °F 71 °F 64 °F (2012)
Cooling Degree Days 10    
Growing Degree Days 24 (Base 50)    
Moisture  
Dew Point 64 °F    
Average Humidity 73    
Maximum Humidity 94    
Minimum Humidity 46    
Precipitation  
Precipitation 0.00 in - - ()
Sea Level Pressure  
Sea Level Pressure 29.89 in    
Wind  
Wind Speed 6 mph ()    
Max Wind Speed 15 mph    
Max Gust Speed -    
Visibility 12.0 miles    
Events      
Averages and records for this station are not official NWS values.
T = Trace of Precipitation, MM = Missing Value Source: Averaged Metar Reports

Daily Weather History Graph

Daily Weather History Graph

Search for Another Location

Airport or City:

Trip Planner

Search our weather history database for the weather conditions in past years. The results will help you decide how hot, cold, wet, or windy it might be!

Date:

Astronomy

Nov. 09, 2012 Rise Set
Actual Time 6:28 AM FJST 7:20 PM FJST
Civil Twilight 6:05 AM FJST 7:43 PM FJST
Nautical Twilight 5:38 AM FJST 8:10 PM FJST
Astronomical Twilight 5:10 AM FJST 8:37 PM FJST
Moon 2:23 AM FJST (11/9) 2:36 PM FJST (11/9)
Length of Visible Light 13h 37m
Length of Day
12h 52m
Waning Crescent, 30% of the Moon is Illuminated
Nov 9
Waning Crescent
Nov 14
New
Nov 21
First Quarter
Nov 29
Full
Dec 7
Last Quarter

Hourly Weather History & Observations

Time (FJST) Temp. Heat Index Dew Point Humidity Pressure Visibility Wind Dir Wind Speed Gust Speed Precip Events Conditions
12:00 AM 68.0 °F - 64.4 °F 88% 29.89 in 24.9 mi South 3.5 mph - N/A   Partly Cloudy
1:00 AM 67 °F - 64 °F 89% 29.87 in 12 mi SE 5.8 mph - -   Partly Cloudy
1:00 AM 66.2 °F - 64.4 °F 94% 29.86 in 24.9 mi SE 5.8 mph - N/A   Partly Cloudy
2:00 AM 66.2 °F - 64.4 °F 94% 29.86 in 24.9 mi ESE 5.8 mph - N/A   Partly Cloudy
3:00 AM 66.2 °F - 62.6 °F 88% 29.86 in 24.9 mi SSE 4.6 mph - N/A   Partly Cloudy
4:00 AM 66 °F - 64 °F 89% 29.86 in 12 mi South 2.3 mph - -   Partly Cloudy
4:00 AM 66.2 °F - 64.4 °F 94% 29.83 in 24.9 mi South 3.5 mph - N/A   Partly Cloudy
5:00 AM 66.2 °F - 62.6 °F 88% 29.86 in 24.9 mi South 6.9 mph - N/A   Partly Cloudy
6:00 AM 66.2 °F - 62.6 °F 88% 29.86 in 31.1 mi SE 5.8 mph - N/A   Partly Cloudy
7:00 AM 65 °F - 63 °F 89% 29.88 in 31 mi SSE 8.1 mph - -   Partly Cloudy
7:00 AM 66.2 °F - 62.6 °F 88% 29.86 in 31.1 mi SSE 8.1 mph - N/A   Partly Cloudy
8:00 AM 71.6 °F - 64.4 °F 78% 29.89 in 31.1 mi SSE 6.9 mph - N/A   Partly Cloudy
9:00 AM 75.2 °F - 64.4 °F 69% 29.89 in 31.1 mi SE 10.4 mph - N/A   Partly Cloudy
10:00 AM 78 °F - 64 °F 52% 29.92 in 31 mi SE 9.2 mph - -   Partly Cloudy
10:00 AM 77.0 °F - 64.4 °F 65% 29.92 in 31.1 mi SE 9.2 mph - N/A   Partly Cloudy
11:00 AM 82.4 °F 83.9 °F 64.4 °F 54% 29.89 in 31.1 mi SSW 9.2 mph - N/A   Scattered Clouds
12:00 PM 82.4 °F 83.4 °F 62.6 °F 51% 29.89 in 31.1 mi Calm Calm - N/A   Scattered Clouds
1:00 PM 82 °F - 66 °F 49% 29.88 in 31 mi West 10.4 mph - -   Partly Cloudy
1:00 PM 82.4 °F 84.6 °F 66.2 °F 58% 29.86 in 31.1 mi West 10.4 mph - N/A   Scattered Clouds
2:00 PM 82.4 °F 85.4 °F 68.0 °F 62% 29.86 in 31.1 mi WNW 15.0 mph - N/A   Scattered Clouds
3:00 PM 84.2 °F 86.6 °F 66.2 °F 55% 29.86 in 31.1 mi Calm Calm - N/A   Scattered Clouds
4:00 PM 82 °F - 65 °F 46% 29.87 in 31 mi South 11.5 mph - -   Partly Cloudy
4:00 PM 82.4 °F 83.9 °F 64.4 °F 54% 29.86 in 31.1 mi South 11.5 mph - N/A   Scattered Clouds
5:00 PM 80.6 °F 82.7 °F 66.2 °F 61% 29.86 in 31.1 mi South 15.0 mph - N/A   Partly Cloudy
6:00 PM 77.0 °F - 66.2 °F 69% 29.86 in 31.1 mi ESE 15.0 mph - N/A   Partly Cloudy
7:00 PM 75 °F - 64 °F 60% 29.91 in 31 mi SE 13.8 mph - -   Partly Cloudy
7:00 PM 75.2 °F - 64.4 °F 69% 29.89 in 31.1 mi SE 13.8 mph - N/A   Scattered Clouds
8:00 PM 75.2 °F - 62.6 °F 65% 29.92 in 31.1 mi ESE 9.2 mph - N/A   Scattered Clouds
9:00 PM 71.6 °F - 64.4 °F 78% 29.95 in 31.1 mi SE 6.9 mph - N/A   Scattered Clouds
10:00 PM 70 °F - 64 °F 76% 29.96 in 31 mi ESE 8.1 mph - -   Partly Cloudy
10:00 PM 69.8 °F - 64.4 °F 83% 29.95 in 31.1 mi ESE 8.1 mph - N/A   Scattered Clouds
11:00 PM 69.8 °F - 62.6 °F 78% 29.95 in 31.1 mi SSE 8.1 mph - N/A   Partly Cloudy